This is the latest recevied weather packets stored in our database for station/object VK3AGD-9. If no packets are shown the sender has not sent any weather packets the latest 10 day(s).
| Time | Temp. | Humidity | Pressure | Rain* | Wind** | Luminosity | Snow |
|---|---|---|---|---|---|---|---|
| 1778083248 | 6.11° C | 95% | - | 0 mm | - | - | - |
| 1778082385 | 6.11° C | 93% | - | 0 mm | - | - | - |
| 1778081424 | 6.67° C | 93% | - | 0 mm | - | - | - |
| 1778080559 | 6.67° C | 91% | - | 0 mm | - | - | - |
| 1778079695 | 6.67° C | 90% | - | 0 mm | - | - | - |
| 1778078735 | 6.67° C | 92% | - | 0 mm | - | - | - |
| 1778077872 | 6.67° C | 95% | - | 0 mm | - | - | - |
| 1778077007 | 6.67° C | 95% | - | 0 mm | - | - | - |
| 1778076047 | 6.67° C | 95% | - | 0 mm | - | - | - |
| 1778075185 | 6.67° C | 96% | - | 0 mm | - | - | - |
| 1778074223 | 7.22° C | 97% | - | 0 mm | - | - | - |
| 1778073359 | 7.22° C | 99% | - | 0 mm | - | - | - |
| 1778072495 | 7.78° C | 99% | - | 0 mm | - | - | - |
| 1778071536 | 8.33° C | 99% | - | 0 mm | - | - | - |
| 1778070672 | 8.33° C | 99% | - | 0 mm | - | - | - |
| 1778069807 | 8.33° C | 99% | - | 0 mm | - | - | - |
| 1778068847 | 8.33° C | 99% | - | 0 mm | - | - | - |
| 1778067985 | 8.33° C | 99% | - | 0 mm | - | - | - |
| 1778067023 | 8.89° C | 99% | - | 0 mm | - | - | - |
| 1778066159 | 9.44° C | 99% | - | 0 mm | - | - | - |
| 1778065295 | 10° C | 99% | - | 0 mm | - | - | - |
| 1778064336 | 10.56° C | 99% | - | 0 mm | - | - | - |
| 1778063471 | 10.56° C | 99% | - | 0 mm | - | - | - |
| 1778062608 | 11.67° C | 99% | - | 0 mm | - | - | - |
| 1778061648 | 11.67° C | 99% | - | 0 mm | - | - | - |
* Rain latest hour (hover to see other rain measurements)
** Current wind speed in m/s (hover to see current wind gust speed)